Home   Weather   Saint John   Past weeks

Flag for Canada Past Weather in Saint John, New Brunswick, Canada — Yesterday and Last 2 Weeks

Now
39 °F

Passing clouds.


Feels Like: 39 °F
Forecast: 39 / 64 °F
Wind: No wind

Location: Saint John

Current Time: Sep 30, 2016 at 3:45:45 AM

Latest Report: Sep 30, 2016 at 3:00 AM


Visibility: 15 mi

Pressure: 30.54 "Hg

Humidity: 100%

Dew Point: 39 °F

Location of Saint JohnLocation

Past Weather in Saint John — Graph

°F

Saint John Temperature Yesterday

Maximum temperature yesterday: 59 °F (at 2:00 PM)
Minimum temperature yesterday: 36 °F (at 11:00 PM)
Average temperature yesterday: 50 °F

High & Low Weather Summary for the Past Weeks

 TemperatureHumidityPressure
High77 °F (Sep 21, 3:00 PM)100% (Sep 15, 2:00 AM)30.56 "Hg (Sep 15, 2:00 AM)
Low36 °F (Sep 16, 5:00 AM)32% (Sep 21, 3:00 PM)29.88 "Hg (Sep 23, 2:00 PM)
Average54 °F85%30.12 "Hg
* Reported Sep 15 2:00 AM — Sep 30 2:00 AM, Saint John, Weather by CustomWeather, © 2016

Note: Actual official high and low records may vary slightly from our data, if they occured in-between our weather recording intervals... More about our weather records

Advertising

Saint John Weather History for the Previous 24 Hours

Scroll right to see more
 ConditionsComfort  
Time TempWeatherWind HumidityBarometerVisibility
2:00 AM
Fri, Sep 30
37 °FClear.No wind100%30.54 "Hg15 mi
1:00 AM36 °FClear.3 mph93%30.55 "Hg15 mi
12:00 AM37 °FPassing clouds.3 mph93%30.56 "Hg15 mi
11:00 PM
Thu, Sep 29
36 °FPassing clouds.7 mph100%30.56 "Hg15 mi
10:00 PM41 °FPassing clouds.3 mph93%30.55 "Hg15 mi
9:00 PM43 °FPassing clouds.3 mph93%30.55 "Hg15 mi
8:00 PM43 °FPassing clouds.5 mph93%30.54 "Hg15 mi
7:00 PM50 °FPartly sunny.8 mph71%30.53 "Hg15 mi
6:00 PM55 °FPartly sunny.9 mph59%30.51 "Hg15 mi
5:00 PM59 °FPartly sunny.13 mph51%30.49 "Hg15 mi
4:00 PM59 °FPartly sunny.15 mph51%30.49 "Hg15 mi
3:00 PM59 °FPartly sunny.16 mph51%30.49 "Hg15 mi
2:00 PM59 °FPartly sunny.17 mph55%30.49 "Hg15 mi
1:00 PM57 °FBroken clouds.21 mph59%30.49 "Hg15 mi
12:00 PM57 °FPartly sunny.17 mph67%30.49 "Hg15 mi
11:00 AM52 °FPartly sunny.13 mph82%30.50 "Hg15 mi
10:00 AM52 °FPartly sunny.18 mph82%30.49 "Hg12 mi
9:00 AM50 °FPartly sunny.18 mph88%30.47 "Hg15 mi
8:00 AM48 °FPartly sunny.15 mph94%30.45 "Hg15 mi
7:00 AM48 °FPassing clouds.16 mph94%30.44 "Hg15 mi
6:00 AM46 °FPassing clouds.17 mph93%30.44 "Hg15 mi
5:00 AM46 °FPartly cloudy.17 mph100%30.43 "Hg15 mi
4:00 AM48 °FLow clouds.17 mph94%30.42 "Hg15 mi
3:00 AM48 °FLow clouds.17 mph100%30.42 "Hg15 mi
Weather by CustomWeather, © 2016

See weather overviewHow to use our weather pages